Time,TemperatureF,DewpointF,PressureIn,WindDirection,WindDirectionDegrees,WindSpeedMPH,WindSpeedGustMPH,Humidity,HourlyPrecipIn,Conditions,Clouds,dailyrainin,SoftwareType,DateUTC
2013-02-01 00:02:00,4.0,1.0,30.24,West,271,20.0,33.0,85,0.00,,,0.00,,2013-02-01 06:02:00,
2013-02-01 00:11:00,4.0,1.0,30.24,West,271,20.0,33.0,85,0.00,,,0.00,,2013-02-01 06:11:00,
2013-02-01 00:22:00,4.0,1.0,30.24,WSW,253,19.0,31.0,85,0.00,,,0.00,,2013-02-01 06:22:00,
2013-02-01 00:32:00,4.0,1.0,30.25,West,263,15.0,32.0,86,0.00,,,0.00,,2013-02-01 06:32:00,
2013-02-01 00:42:00,4.0,1.0,30.25,West,263,15.0,32.0,86,0.00,,,0.00,,2013-02-01 06:42:00,
2013-02-01 00:52:00,4.0,0.0,30.25,West,263,18.0,30.0,84,0.00,,,0.00,,2013-02-01 06:52:00,
2013-02-01 01:02:00,3.0,-1.0,30.27,West,265,14.0,28.0,84,0.00,,,0.00,,2013-02-01 07:02:00,
2013-02-01 01:12:00,3.0,-1.0,30.27,West,265,14.0,28.0,84,0.00,,,0.00,,2013-02-01 07:12:00,
2013-02-01 01:22:00,3.0,-1.0,30.27,West,265,14.0,28.0,84,0.00,,,0.00,,2013-02-01 07:22:00,
2013-02-01 01:32:00,3.0,-1.0,30.27,West,265,17.0,28.0,84,0.00,,,0.00,,2013-02-01 07:32:00,
2013-02-01 01:42:00,3.0,-1.0,30.27,West,265,17.0,28.0,84,0.00,,,0.00,,2013-02-01 07:42:00,
2013-02-01 01:52:00,3.0,-1.0,30.27,West,265,17.0,28.0,84,0.00,,,0.00,,2013-02-01 07:52:00,
2013-02-01 02:01:00,3.0,0.0,30.29,West,267,16.0,32.0,85,0.00,,,0.00,,2013-02-01 08:01:00,
2013-02-01 02:11:00,3.0,0.0,30.29,West,267,16.0,32.0,85,0.00,,,0.00,,2013-02-01 08:11:00,
2013-02-01 02:21:00,3.0,0.0,30.29,West,268,15.0,26.0,86,0.00,,,0.00,,2013-02-01 08:21:00,
2013-02-01 02:32:00,3.0,0.0,30.30,West,262,17.0,32.0,86,0.00,,,0.00,,2013-02-01 08:32:00,
2013-02-01 02:42:00,3.0,0.0,30.30,West,262,17.0,32.0,86,0.00,,,0.00,,2013-02-01 08:42:00,
2013-02-01 02:52:00,3.0,0.0,30.30,West,270,14.0,29.0,86,0.00,,,0.00,,2013-02-01 08:52:00,
2013-02-01 03:01:00,3.0,0.0,30.31,West,262,16.0,25.0,88,0.00,,,0.00,,2013-02-01 09:01:00,
2013-02-01 03:11:00,3.0,0.0,30.31,West,262,16.0,25.0,88,0.00,,,0.00,,2013-02-01 09:11:00,
2013-02-01 03:21:00,3.0,0.0,30.31,West,269,17.0,35.0,88,0.00,,,0.00,,2013-02-01 09:21:00,
2013-02-01 03:32:00,3.0,0.0,30.31,West,262,13.0,26.0,88,0.00,,,0.00,,2013-02-01 09:32:00,
2013-02-01 03:41:00,3.0,0.0,30.31,West,262,13.0,26.0,88,0.00,,,0.00,,2013-02-01 09:41:00,
2013-02-01 03:51:00,3.0,0.0,30.31,West,260,16.0,26.0,87,0.00,,,0.00,,2013-02-01 09:51:00,
2013-02-01 04:01:00,3.0,0.0,30.31,West,260,16.0,26.0,87,0.00,,,0.00,,2013-02-01 10:01:00,
2013-02-01 04:11:00,3.0,0.0,30.31,West,260,16.0,26.0,87,0.00,,,0.00,,2013-02-01 10:11:00,
2013-02-01 04:21:00,3.0,0.0,30.31,West,260,16.0,26.0,87,0.00,,,0.00,,2013-02-01 10:21:00,
2013-02-01 04:32:00,2.0,-1.0,30.31,West,269,19.0,30.0,85,0.00,,,0.00,,2013-02-01 10:32:00,
2013-02-01 04:43:00,2.0,-1.0,30.31,West,269,19.0,30.0,85,0.00,,,0.00,,2013-02-01 10:43:00,
2013-02-01 04:53:00,2.0,-1.0,30.31,West,263,16.0,29.0,86,0.00,,,0.00,,2013-02-01 10:53:00,
2013-02-01 05:02:00,2.0,-1.0,30.31,West,278,15.0,28.0,87,0.00,,,0.00,,2013-02-01 11:02:00,
2013-02-01 05:11:00,2.0,-1.0,30.31,West,278,15.0,28.0,87,0.00,,,0.00,,2013-02-01 11:11:00,
2013-02-01 05:22:00,2.0,-1.0,30.32,West,279,12.0,29.0,87,0.00,,,0.00,,2013-02-01 11:22:00,
2013-02-01 05:32:00,2.0,-1.0,30.32,West,263,14.0,25.0,87,0.00,,,0.00,,2013-02-01 11:32:00,
2013-02-01 05:42:00,2.0,-1.0,30.32,West,263,14.0,25.0,87,0.00,,,0.00,,2013-02-01 11:42:00,
2013-02-01 05:53:00,2.0,-1.0,30.32,West,263,14.0,25.0,87,0.00,,,0.00,,2013-02-01 11:53:00,
2013-02-01 06:02:00,2.0,-1.0,30.33,West,266,12.0,23.0,87,0.00,,,0.00,,2013-02-01 12:02:00,
2013-02-01 06:12:00,2.0,-1.0,30.33,West,266,12.0,23.0,87,0.00,,,0.00,,2013-02-01 12:12:00,
2013-02-01 06:22:00,2.0,-1.0,30.34,WNW,285,12.0,22.0,87,0.00,,,0.00,,2013-02-01 12:22:00,
2013-02-01 06:32:00,2.0,-1.0,30.34,West,267,11.0,24.0,88,0.00,,,0.00,,2013-02-01 12:32:00,
2013-02-01 06:42:00,2.0,-1.0,30.34,West,267,11.0,24.0,88,0.00,,,0.00,,2013-02-01 12:42:00,
2013-02-01 06:52:00,2.0,-1.0,30.34,West,260,13.0,22.0,88,0.00,,,0.00,,2013-02-01 12:52:00,
2013-02-01 07:02:00,2.0,-1.0,30.34,West,260,13.0,22.0,88,0.00,,,0.00,,2013-02-01 13:02:00,
2013-02-01 07:11:00,2.0,-1.0,30.34,West,260,13.0,22.0,88,0.00,,,0.00,,2013-02-01 13:11:00,
2013-02-01 07:22:00,3.0,1.0,30.35,West,268,13.0,18.0,90,0.00,,,0.00,,2013-02-01 13:22:00,
2013-02-01 07:33:00,2.0,0.0,30.35,West,279,11.0,22.0,90,0.00,,,0.00,,2013-02-01 13:33:00,
2013-02-01 07:42:00,2.0,0.0,30.35,West,279,11.0,22.0,90,0.00,,,0.00,,2013-02-01 13:42:00,
2013-02-01 07:52:00,2.0,0.0,30.35,West,263,15.0,26.0,89,0.00,,,0.00,,2013-02-01 13:52:00,
2013-02-01 08:03:00,3.0,0.0,30.36,West,263,12.0,23.0,87,0.00,,,0.00,,2013-02-01 14:03:00,
2013-02-01 08:11:00,3.0,0.0,30.36,West,263,12.0,23.0,87,0.00,,,0.00,,2013-02-01 14:11:00,
2013-02-01 08:21:00,3.0,0.0,30.36,West,263,17.0,25.0,87,0.00,,,0.00,,2013-02-01 14:21:00,
2013-02-01 08:32:00,3.0,-1.0,30.37,West,260,13.0,25.0,84,0.00,,,0.00,,2013-02-01 14:32:00,
2013-02-01 08:42:00,3.0,-1.0,30.37,West,260,13.0,25.0,84,0.00,,,0.00,,2013-02-01 14:42:00,
2013-02-01 08:52:00,3.0,0.0,30.37,West,260,12.0,21.0,86,0.00,,,0.00,,2013-02-01 14:52:00,
2013-02-01 09:02:00,4.0,1.0,30.38,WSW,247,14.0,24.0,86,0.00,,,0.00,,2013-02-01 15:02:00,
2013-02-01 09:12:00,4.0,1.0,30.39,West,260,16.0,24.0,86,0.00,,,0.00,,2013-02-01 15:12:00,
2013-02-01 09:22:00,4.0,1.0,30.39,West,260,16.0,24.0,86,0.00,,,0.00,,2013-02-01 15:22:00,
2013-02-01 09:33:00,5.0,1.0,30.39,SW,236,12.0,23.0,84,0.00,,,0.00,,2013-02-01 15:33:00,
2013-02-01 09:42:00,5.0,1.0,30.39,SW,236,12.0,23.0,84,0.00,,,0.00,,2013-02-01 15:42:00,
2013-02-01 09:52:00,5.0,1.0,30.39,SW,236,12.0,23.0,84,0.00,,,0.00,,2013-02-01 15:52:00,
2013-02-01 10:03:00,5.0,0.0,30.40,WSW,250,12.0,18.0,81,0.00,,,0.00,,2013-02-01 16:03:00,
2013-02-01 10:11:00,6.0,1.0,30.40,WSW,240,10.0,23.0,79,0.00,,,0.00,,2013-02-01 16:11:00,
2013-02-01 10:22:00,6.0,1.0,30.40,WSW,240,10.0,23.0,79,0.00,,,0.00,,2013-02-01 16:22:00,
2013-02-01 10:33:00,6.0,1.0,30.40,WSW,251,13.0,22.0,80,0.00,,,0.00,,2013-02-01 16:33:00,
2013-02-01 10:42:00,6.0,1.0,30.40,WSW,251,13.0,22.0,80,0.00,,,0.00,,2013-02-01 16:42:00,
2013-02-01 10:52:00,6.0,1.0,30.40,WSW,251,13.0,22.0,80,0.00,,,0.00,,2013-02-01 16:52:00,
2013-02-01 11:02:00,8.0,2.0,30.39,West,265,10.0,22.0,76,0.00,,,0.00,,2013-02-01 17:02:00,
2013-02-01 11:11:00,8.0,2.0,30.39,West,265,10.0,22.0,76,0.00,,,0.00,,2013-02-01 17:11:00,
2013-02-01 11:22:00,8.0,2.0,30.39,WSW,251,10.0,20.0,76,0.00,,,0.00,,2013-02-01 17:22:00,
2013-02-01 11:32:00,9.0,3.0,30.38,WSW,249,13.0,18.0,75,0.00,,,0.00,,2013-02-01 17:32:00,
2013-02-01 11:42:00,9.0,3.0,30.38,WSW,249,13.0,18.0,75,0.00,,,0.00,,2013-02-01 17:42:00,
2013-02-01 11:52:00,10.0,3.0,30.38,SW,236,14.0,21.0,74,0.00,,,0.00,,2013-02-01 17:52:00,
2013-02-01 12:02:00,10.0,3.0,30.38,SW,215,13.0,22.0,74,0.00,,,0.00,,2013-02-01 18:02:00,
2013-02-01 12:12:00,10.0,3.0,30.38,SW,215,13.0,22.0,74,0.00,,,0.00,,2013-02-01 18:12:00,
2013-02-01 12:22:00,11.0,5.0,30.37,SW,214,13.0,24.0,76,0.00,,,0.00,,2013-02-01 18:22:00,
2013-02-01 12:32:00,12.0,6.0,30.36,SW,221,14.0,24.0,78,0.00,,,0.00,,2013-02-01 18:32:00,
2013-02-01 12:42:00,12.0,6.0,30.36,SW,221,14.0,24.0,78,0.00,,,0.00,,2013-02-01 18:42:00,
2013-02-01 12:52:00,12.0,6.0,30.36,SW,221,14.0,24.0,78,0.00,,,0.00,,2013-02-01 18:52:00,
2013-02-01 13:02:00,12.0,6.0,30.36,SW,221,14.0,24.0,78,0.00,,,0.00,,2013-02-01 19:02:00,
2013-02-01 13:11:00,12.0,6.0,30.36,SW,221,14.0,24.0,78,0.00,,,0.00,,2013-02-01 19:11:00,
2013-02-01 13:21:00,13.0,7.0,30.35,SW,228,11.0,22.0,75,0.00,,,0.00,,2013-02-01 19:21:00,
2013-02-01 13:32:00,14.0,7.0,30.33,WSW,253,13.0,21.0,74,0.00,,,0.00,,2013-02-01 19:32:00,
2013-02-01 13:42:00,14.0,7.0,30.33,WSW,253,13.0,21.0,74,0.00,,,0.00,,2013-02-01 19:42:00,
2013-02-01 13:51:00,14.0,7.0,30.33,WSW,253,13.0,21.0,74,0.00,,,0.00,,2013-02-01 19:51:00,
2013-02-01 14:02:00,15.0,8.0,30.32,SW,225,14.0,24.0,72,0.00,,,0.00,,2013-02-01 20:02:00,
2013-02-01 14:11:00,15.0,8.0,30.32,SW,225,14.0,24.0,72,0.00,,,0.00,,2013-02-01 20:11:00,
2013-02-01 14:21:00,16.0,8.0,30.31,WSW,237,12.0,22.0,70,0.00,,,0.00,,2013-02-01 20:21:00,
2013-02-01 14:32:00,16.0,8.0,30.31,SW,214,11.0,25.0,70,0.00,,,0.00,,2013-02-01 20:32:00,
2013-02-01 14:41:00,16.0,8.0,30.31,SW,214,11.0,25.0,70,0.00,,,0.00,,2013-02-01 20:41:00,
2013-02-01 14:52:00,16.0,8.0,30.31,SW,214,11.0,25.0,70,0.00,,,0.00,,2013-02-01 20:52:00,
2013-02-01 15:02:00,17.0,8.0,30.31,SW,234,13.0,23.0,68,0.00,,,0.00,,2013-02-01 21:02:00,
2013-02-01 15:12:00,17.0,8.0,30.31,SW,234,13.0,23.0,68,0.00,,,0.00,,2013-02-01 21:12:00,
2013-02-01 15:21:00,17.0,9.0,30.30,SSW,209,10.0,24.0,69,0.00,,,0.00,,2013-02-01 21:21:00,
2013-02-01 15:32:00,17.0,8.0,30.30,SW,235,12.0,26.0,68,0.00,,,0.00,,2013-02-01 21:32:00,
2013-02-01 15:41:00,17.0,8.0,30.30,SW,235,12.0,26.0,68,0.00,,,0.00,,2013-02-01 21:41:00,
2013-02-01 15:52:00,17.0,8.0,30.30,SW,235,12.0,26.0,68,0.00,,,0.00,,2013-02-01 21:52:00,
2013-02-01 16:02:00,17.0,9.0,30.29,SW,231,9.0,23.0,69,0.00,,,0.00,,2013-02-01 22:02:00,
2013-02-01 16:11:00,17.0,9.0,30.29,SW,231,9.0,23.0,69,0.00,,,0.00,,2013-02-01 22:11:00,
2013-02-01 16:21:00,17.0,8.0,30.29,SW,220,12.0,21.0,68,0.00,,,0.00,,2013-02-01 22:21:00,
2013-02-01 16:32:00,16.0,8.0,30.29,SW,226,13.0,22.0,71,0.00,,,0.00,,2013-02-01 22:32:00,
2013-02-01 16:42:00,16.0,8.0,30.29,SW,226,13.0,22.0,71,0.00,,,0.00,,2013-02-01 22:42:00,
2013-02-01 16:51:00,16.0,9.0,30.29,SSW,211,9.0,22.0,73,0.00,,,0.00,,2013-02-01 22:51:00,
2013-02-01 17:01:00,17.0,10.0,30.29,SW,235,9.0,20.0,72,0.00,,,0.00,,2013-02-01 23:01:00,
2013-02-01 17:11:00,17.0,10.0,30.29,SW,235,9.0,20.0,72,0.00,,,0.00,,2013-02-01 23:11:00,
2013-02-01 17:21:00,16.0,9.0,30.29,SW,229,10.0,23.0,72,0.00,,,0.00,,2013-02-01 23:21:00,
2013-02-01 17:32:00,17.0,10.0,30.28,SSW,213,9.0,22.0,72,0.00,,,0.00,,2013-02-01 23:32:00,
2013-02-01 17:41:00,17.0,10.0,30.28,SSW,213,9.0,22.0,72,0.00,,,0.00,,2013-02-01 23:41:00,
2013-02-01 17:52:00,17.0,10.0,30.28,SW,217,10.0,18.0,73,0.00,,,0.00,,2013-02-01 23:52:00,
2013-02-01 18:02:00,17.0,10.0,30.28,SW,218,12.0,20.0,72,0.00,,,0.00,,2013-02-02 00:02:00,
2013-02-01 18:11:00,17.0,10.0,30.28,SW,218,12.0,20.0,72,0.00,,,0.00,,2013-02-02 00:11:00,
2013-02-01 18:21:00,17.0,10.0,30.28,SW,222,9.0,22.0,73,0.00,,,0.00,,2013-02-02 00:21:00,
2013-02-01 18:32:00,17.0,10.0,30.28,SW,231,9.0,18.0,73,0.00,,,0.00,,2013-02-02 00:32:00,
2013-02-01 18:42:00,17.0,10.0,30.28,SW,231,9.0,18.0,73,0.00,,,0.00,,2013-02-02 00:42:00,
2013-02-01 18:52:00,17.0,10.0,30.28,SW,231,9.0,18.0,73,0.00,,,0.00,,2013-02-02 00:52:00,
2013-02-01 19:02:00,17.0,10.0,30.27,SW,218,13.0,21.0,72,0.00,,,0.00,,2013-02-02 01:02:00,
2013-02-01 19:11:00,17.0,10.0,30.27,SW,218,13.0,21.0,72,0.00,,,0.00,,2013-02-02 01:11:00,
2013-02-01 19:21:00,17.0,10.0,30.26,SSW,206,12.0,21.0,74,0.00,,,0.00,,2013-02-02 01:21:00,
2013-02-01 19:32:00,18.0,11.0,30.26,SSW,206,14.0,22.0,74,0.00,,,0.00,,2013-02-02 01:32:00,
2013-02-01 19:42:00,18.0,11.0,30.26,SSW,206,14.0,22.0,74,0.00,,,0.00,,2013-02-02 01:42:00,
2013-02-01 19:52:00,18.0,12.0,30.26,SSW,209,10.0,23.0,76,0.00,,,0.00,,2013-02-02 01:52:00,
2013-02-01 20:01:00,18.0,11.0,30.24,SW,218,13.0,23.0,75,0.00,,,0.00,,2013-02-02 02:01:00,
2013-02-01 20:11:00,18.0,11.0,30.24,SW,218,13.0,23.0,75,0.00,,,0.00,,2013-02-02 02:11:00,
2013-02-01 20:21:00,18.0,11.0,30.24,SSW,208,11.0,21.0,75,0.00,,,0.00,,2013-02-02 02:21:00,
2013-02-01 20:32:00,18.0,12.0,30.22,SSW,201,10.0,22.0,76,0.00,,,0.00,,2013-02-02 02:32:00,
2013-02-01 20:42:00,18.0,12.0,30.22,SSW,201,10.0,22.0,76,0.00,,,0.00,,2013-02-02 02:42:00,
2013-02-01 20:52:00,19.0,13.0,30.22,SSW,199,10.0,17.0,77,0.00,,,0.00,,2013-02-02 02:52:00,
2013-02-01 21:02:00,19.0,13.0,30.21,SSW,196,10.0,18.0,77,0.00,,,0.00,,2013-02-02 03:02:00,
2013-02-01 21:11:00,19.0,13.0,30.21,SSW,196,10.0,18.0,77,0.00,,,0.00,,2013-02-02 03:11:00,
2013-02-01 21:21:00,19.0,13.0,30.21,SSW,206,12.0,21.0,76,0.00,,,0.00,,2013-02-02 03:21:00,
2013-02-01 21:32:00,19.0,13.0,30.20,South,181,12.0,21.0,77,0.00,,,0.00,,2013-02-02 03:32:00,
2013-02-01 21:42:00,20.0,14.0,30.19,South,185,12.0,20.0,76,0.00,,,0.00,,2013-02-02 03:42:00,
2013-02-01 21:52:00,20.0,14.0,30.19,South,185,12.0,20.0,76,0.00,,,0.00,,2013-02-02 03:52:00,
2013-02-01 22:01:00,20.0,14.0,30.19,SSW,192,10.0,21.0,77,0.00,,,0.00,,2013-02-02 04:01:00,
2013-02-01 22:11:00,20.0,14.0,30.19,SSW,192,10.0,21.0,77,0.00,,,0.00,,2013-02-02 04:11:00,
2013-02-01 22:21:00,20.0,14.0,30.19,SSW,192,10.0,21.0,77,0.00,,,0.00,,2013-02-02 04:21:00,
2013-02-01 22:32:00,21.0,15.0,30.18,SSW,197,13.0,21.0,76,0.00,,,0.00,,2013-02-02 04:32:00,
2013-02-01 22:42:00,21.0,15.0,30.18,SSW,197,13.0,21.0,76,0.00,,,0.00,,2013-02-02 04:42:00,
2013-02-01 22:52:00,21.0,14.0,30.18,South,189,13.0,21.0,75,0.00,,,0.00,,2013-02-02 04:52:00,
2013-02-01 23:03:00,20.0,16.0,30.17,SSW,197,14.0,30.0,85,0.00,,,0.00,,2013-02-02 05:03:00,
2013-02-01 23:12:00,20.0,16.0,30.17,SSW,197,14.0,30.0,85,0.00,,,0.00,,2013-02-02 05:12:00,
2013-02-01 23:22:00,20.0,17.0,30.17,SSW,192,13.0,24.0,88,0.00,,,0.00,,2013-02-02 05:22:00,
2013-02-01 23:33:00,19.0,18.0,30.17,SSW,197,13.0,20.0,95,0.00,,,0.00,,2013-02-02 05:33:00,
2013-02-01 23:52:00,20.0,19.0,30.17,SSW,208,10.0,20.0,96,0.00,,,0.00,,2013-02-02 05:52:00,